Hourly Data Report for October 06, 2015

All times are specified in Local Standard Time (LST). Add 1 hour to adjust for Daylight Saving Time where and when it is observed.

QIKIQTARJUAQ A
NUNAVUT

67°32'48.000" N
64°01'54.000" W
5.50 m
2400577
YVM

Download Data

Hourly Data (October 2015)
Hourly Data Report for October 6, 2015
Temp Definition
°C
Dew Point Temp Definition
°C
Rel Hum Definition
%
Wind Dir Definition
10's deg

Wind Spd Definition
km/h
Visibility Definition
km
Stn Press Definition
kPa
Hmdx Definition


Wind Chill Definition


Weather Definition


TIME
00:00 Legend Double Dagger -3.4 -9.1 65 LegendMM 4 16.1 101.49   -5 LegendNANA
01:00 Legend Double Dagger -3.1 -9.8 60 20 21 16.1 101.48   -9 LegendNANA
02:00 Legend Double Dagger -3.0 -10.2 58 19 24 16.1 101.45   -10 LegendNANA
03:00 Legend Double Dagger -3.5 -10.6 58 19 26 16.1 101.43   -11 LegendNANA
04:00 Legend Double Dagger -3.8 -10.6 59 18 28 16.1 101.41   -11 LegendNANA
05:00 Legend Double Dagger -4.1 -10.4 62 19 24 16.1 101.41   -11 LegendNANA
06:00 Legend Double Dagger -4.2 -10.2 63 19 28 16.1 101.42   -12 LegendNANA
07:00 Legend Double Dagger -3.8 -11.3 56 19 26 16.1 101.37   -11 LegendNANA
08:00 Legend Double Dagger -3.5 -10.5 59 18 28 16.1 101.34   -11 LegendNANA
09:00 Legend Double Dagger -3.4 -10.1 60 20 24 16.1 101.31   -10 LegendNANA
10:00 Legend Double Dagger -2.6 -8.5 64 21 21 16.1 101.27   -9 LegendNANA
11:00 Legend Double Dagger -2.7 -8.0 67 21 24 16.1 101.21   -9 LegendNANA
12:00 Legend Double Dagger -1.4 -7.2 65 20 17 16.1 101.18   -7 LegendNANA
13:00 Legend Double Dagger -1.9 -6.5 71 21 18 16.1 101.14   -7 LegendNANA
14:00 Legend Double Dagger -2.6 -7.4 70 20 22 16.1 101.10   -9 LegendNANA
15:00 Legend Double Dagger -4.0 -9.5 66 17 5 16.1 101.11   -6 LegendNANA
16:00 Legend Double Dagger -4.4 -9.3 69 19 11 16.1 101.07   -9 LegendNANA
17:00 Legend Double Dagger -4.1 -8.4 72 19 18 16.1 101.03   -10 LegendNANA
18:00 Legend Double Dagger -4.2 -9.0 70 20 22 16.1 100.97   -11 LegendNANA
19:00 Legend Double Dagger -4.0 -9.9 64 19 24 16.1 100.90   -11 LegendNANA
20:00 Legend Double Dagger -4.0 -10.4 61 19 21 16.1 100.84   -10 LegendNANA
21:00 Legend Double Dagger -4.2 -9.6 66 19 30 16.1 100.77   -12 LegendNANA
22:00 Legend Double Dagger -5.1 -10.9 64 17 15 16.1 100.73   -11 LegendNANA
23:00 Legend Double Dagger -4.9 -10.6 65 18 17 16.1 100.69   -11 LegendNANA

Notes on Data Quality.

Legend

  • E = Estimated
  • M = Missing
  • NA = Not Available
  • ‡ = Partner data that is not subject to review by the National Climate Archives
Date modified: